Theta_e
304 303 304 304 303 303 302 302 302 302 302 301 301 301 301 301 301 302 302 302 302 302 302 303 305 307 309 310 312 313 314 315 316 316 317 317 317 317 317 317 321 322 323
304 304 305 305 304 303 302 303 303 302 302 302 302 302 302 303 303 302 303 303 303 302 302 303 304 305 307 309 310 312 314 315 315 316 314 315 314 316 313 315 314 316 321
304 305 305 304 304 303 303 303 304 303 303 303 303 304 304 303 304 303 303 303 303 303 302 304 304 305 306 308 311 312 312 315 315 316 313 312 310 311 309 309 311 310 311
305 306 306 304 304 303 304 304 304 304 304 304 304 304 304 303 304 303 303 303 303 303 303 304 303 303 306 307 309 310 311 313 314 315 312 308 309 308 308 307 306 306 307
305 305 305 304 304 304 304 305 305 304 304 304 303 303 304 303 304 304 304 304 303 303 303 304 302 302 303 307 308 309 310 310 310 310 309 309 308 308 308 307 307 306 306
305 305 305 305 305 304 304 305 304 304 304 304 304 303 304 304 304 303 303 304 303 303 304 304 304 303 302 303 306 307 308 309 309 308 308 308 307 307 307 306 306 306 306
305 305 305 305 304 304 304 304 304 303 304 304 304 304 305 305 305 303 303 303 303 302 302 302 303 303 302 303 303 305 305 306 307 307 307 307 307 307 306 306 307 306 307
305 306 305 305 304 304 304 304 304 303 303 303 303 303 304 305 305 304 304 303 303 302 301 301 302 302 302 302 303 303 304 304 305 304 304 304 305 305 305 306 306 307 307
306 306 305 305 304 304 304 304 304 303 303 303 302 302 302 302 303 304 304 304 303 303 302 301 301 302 303 303 302 303 303 304 305 304 305 305 305 304 305 306 306 307 306
305 306 305 305 304 304 304 304 304 303 303 303 303 302 302 301 301 302 304 305 303 303 302 303 303 302 302 303 303 301 302 303 303 303 303 304 306 306 305 306 306 306 306
305 305 306 305 304 305 305 304 304 304 304 303 303 304 303 302 301 301 303 304 304 304 304 304 303 303 302 302 303 303 303 303 303 303 302 302 302 303 306 307 306 306 307
305 305 306 306 306 306 306 307 305 305 305 305 305 304 303 302 301 301 301 302 304 304 304 304 304 303 302 301 301 302 303 303 302 301 301 301 302 303 303 303 304 304 304
305 305 305 305 307 306 308 308 308 306 306 305 305 305 303 302 301 301 301 301 305 304 304 305 305 304 303 301 301 300 301 301 301 301 301 302 303 304 304 304 305 305 305
304 305 305 305 306 306 307 308 308 307 306 306 304 304 302 301 301 300 300 300 302 303 303 304 305 304 304 304 302 302 301 301 301 301 301 302 303 303 304 304 304 304 303
305 305 305 305 305 305 306 308 308 308 307 307 304 303 303 302 301 301 300 300 301 304 303 304 304 304 304 304 304 304 303 303 303 303 303 304 304 304 304 304 304 303 302
305 304 305 305 305 305 305 306 305 306 306 306 305 304 303 302 301 301 301 300 300 300 302 302 302 303 304 304 304 305 304 305 304 304 304 304 305 304 304 304 303 303 303
306 304 305 305 305 305 305 305 305 305 304 304 303 302 301 301 302 302 301 300 300 300 300 301 302 301 302 303 304 304 305 305 306 305 305 305 305 304 304 305 304 305 303
305 304 304 304 304 304 305 305 305 304 304 303 303 302 301 300 301 301 300 300 300 299 299 300 300 301 300 302 303 304 305 305 305 305 306 305 305 305 305 305 304 304 303
304 304 304 304 304 304 304 304 303 303 303 303 303 302 301 300 301 300 299 299 299 299 299 299 299 299 300 300 301 303 304 305 306 305 305 305 305 305 305 305 305 305 304
306 306 304 304 305 304 303 303 302 303 303 303 303 302 300 300 300 299 299 298 298 298 298 298 298 299 300 300 300 301 303 304 304 305 306 306 306 306 305 305 305 305 305
306 306 306 304 305 304 303 303 303 303 302 301 300 301 300 300 299 299 298 298 298 298 298 297 297 297 298 298 299 300 301 303 304 303 305 305 306 304 303 303 304 305 305
307 306 305 305 305 304 304 303 303 302 302 301 300 300 300 299 299 298 298 298 298 298 297 297 296 297 297 298 298 299 299 302 304 304 304 306 305 304 303 304 304 305 305
306 306 306 306 305 305 304 303 303 302 302 301 299 299 299 299 299 299 299 298 297 298 298 298 297 297 297 297 297 298 299 300 303 304 304 305 306 306 305 305 304 304 304
306 306 306 305 305 304 304 303 303 302 301 300 299 298 298 298 299 298 298 298 297 298 297 297 297 297 296 296 297 298 299 300 302 304 303 305 306 306 307 305 304 303 302
306 306 306 305 305 305 304 303 302 301 300 300 299 298 298 298 298 298 298 298 297 297 296 295 294 294 294 295 297 298 299 300 302 302 304 305 305 306 306 307 306 306 306
306 306 306 307 307 305 303 302 301 300 300 299 298 298 298 298 298 298 298 297 297 297 295 294 293 293 296 297 298 298 299 299 301 302 303 305 304 305 306 306 306 306 306
Wind_Speed
13 15 15 16 16 16 18 20 21 20 21 24 24 21 19 19 19 17 17 18 18 18 19 17 14 12 8 6 5 6 5 6 5 3 8 5 9 10 12 16 23 24 17
11 13 15 16 17 16 18 20 19 18 18 20 19 17 19 19 21 21 17 17 16 17 18 18 17 13 13 9 7 7 7 5 7 12 11 11 12 14 13 13 13 16 16
11 13 17 17 17 15 17 20 19 19 20 21 19 21 20 21 22 23 21 18 17 15 16 18 18 18 16 13 11 10 6 4 12 18 16 15 16 12 14 17 14 15 16
10 13 14 16 15 14 15 19 23 22 24 25 22 21 20 19 19 21 23 22 20 18 16 17 19 17 17 16 10 14 2 7 16 20 20 20 17 16 14 18 20 17 18
11 13 15 14 14 12 16 17 23 24 24 22 22 21 22 23 25 24 25 24 23 18 17 15 19 19 17 15 16 11 15 18 22 22 21 18 14 11 11 14 17 18 18
9 12 13 14 15 11 14 15 17 22 21 24 26 27 25 25 22 24 25 21 21 23 18 16 16 20 19 17 13 15 13 9 18 12 13 10 10 10 10 13 16 16 15
7 10 12 13 15 15 12 15 17 21 22 23 25 27 25 27 24 22 23 24 21 20 20 16 16 16 18 14 14 14 16 13 13 11 10 11 11 9 11 13 12 7 11
5 8 11 11 14 14 12 14 16 19 21 23 25 25 26 26 25 23 22 23 20 18 19 18 16 15 14 14 10 12 14 14 13 10 9 8 7 7 4 5 5 6 9
3 6 10 11 12 12 12 13 14 17 20 21 22 24 26 27 25 22 23 21 20 20 16 17 15 13 12 11 10 9 12 13 11 11 10 9 8 7 7 8 8 7 9
2 4 6 9 10 11 10 11 12 15 19 19 20 22 24 26 27 24 21 20 19 21 17 18 12 13 11 10 9 8 9 12 11 9 8 7 7 5 6 8 5 4 5
1 3 5 7 8 11 14 11 10 11 12 17 19 20 20 23 27 23 22 22 18 19 18 17 17 14 8 10 9 7 7 8 7 7 7 7 4 4 4 4 5 5 4
1 1 2 5 6 8 9 11 10 11 15 16 18 20 21 22 24 24 21 22 18 17 17 15 15 13 12 10 9 8 6 6 7 7 8 9 7 5 5 4 3 2 1
4 4 4 5 6 10 11 11 10 11 14 17 17 18 20 21 23 21 20 21 16 17 15 15 12 14 12 11 9 8 7 7 6 6 7 9 10 9 9 6 8 9 7
5 5 5 5 6 9 12 11 11 11 12 14 17 16 18 22 25 23 19 16 17 16 14 13 18 13 14 12 10 8 6 5 6 6 5 5 6 9 11 10 11 11 12
5 6 4 5 5 11 11 12 12 12 12 11 18 18 20 19 22 22 19 18 15 15 12 9 11 12 14 13 13 12 8 5 4 4 4 4 5 6 7 8 8 8 10
4 3 3 6 6 9 11 12 13 12 10 11 15 16 17 17 19 19 16 14 14 14 14 14 14 11 12 13 9 9 10 9 5 5 4 5 6 8 9 9 7 6 7
4 2 3 5 8 9 11 12 12 12 12 11 15 16 17 19 18 18 15 12 12 12 11 13 16 17 14 11 12 13 6 6 7 9 6 5 5 6 3 4 5 4 5
2 1 3 7 10 11 11 11 12 11 11 10 13 15 18 21 17 14 13 12 12 11 12 14 15 14 15 13 12 10 7 3 4 5 5 6 5 3 2 2 2 3 5
3 1 4 8 11 10 11 13 14 13 15 15 14 13 18 19 15 11 14 14 13 12 12 12 12 13 13 14 13 10 9 6 5 3 2 2 2 2 2 2 0 2 2
4 6 5 8 12 9 11 12 14 15 15 15 15 14 15 17 14 13 15 14 11 11 11 13 13 13 12 12 14 11 9 8 7 6 5 2 4 4 3 2 2 0 1
5 7 5 8 11 9 13 13 14 15 14 14 17 13 13 13 13 13 14 13 12 13 13 15 15 14 13 13 12 11 9 10 7 6 6 5 4 4 5 5 4 4 3
7 5 3 7 9 9 11 14 15 14 14 16 17 12 11 11 13 14 12 13 13 13 14 16 19 15 12 13 14 13 10 7 8 4 7 5 1 1 2 1 2 3 5
4 6 8 9 10 11 12 15 18 17 17 14 14 11 12 13 13 11 12 12 14 17 15 14 15 14 13 11 13 13 10 6 8 5 6 4 3 2 2 2 2 2 6
7 7 5 5 7 11 13 16 19 17 17 12 12 13 15 13 13 13 12 12 16 21 18 15 17 17 16 14 11 10 9 8 7 7 4 4 0 4 3 5 4 6 8
7 8 9 10 9 11 13 16 17 17 14 11 12 13 15 13 12 10 12 16 19 22 19 16 17 18 18 14 8 8 7 9 7 8 6 7 3 5 6 3 6 7 6
7 10 10 9 9 8 10 15 16 15 12 10 11 13 14 12 12 13 14 18 21 21 16 15 16 16 16 10 8 7 6 8 6 7 9 3 8 5 5 4 5 6 3
Wind_Direction
37 33 19 13 11 11 13 14 13 18 23 27 40 38 34 31 26 26 25 27 21 22 21 21 20 14 4 354 318 307 285 259 235 102 193 199 152 145 164 156 161 145 145
35 19 4 4 9 17 25 20 16 17 20 19 21 15 15 21 21 18 18 16 20 24 20 24 29 27 21 7 346 312 305 286 199 177 165 159 136 134 117 119 115 120 145
19 22 16 17 23 36 29 28 25 25 22 20 18 21 27 19 13 19 22 17 17 22 26 17 25 35 27 25 24 353 316 246 186 187 166 152 130 124 108 104 99 96 109
19 8 8 22 27 33 30 35 31 29 23 27 26 22 20 26 16 21 21 21 22 24 26 22 32 36 33 31 42 46 43 178 181 186 156 135 119 108 102 105 101 96 93
24 32 34 33 28 35 34 29 32 36 33 26 28 27 29 21 23 18 13 18 20 23 28 30 38 39 40 44 49 70 75 109 116 121 125 122 107 105 113 109 109 110 107
44 34 30 31 29 19 26 41 35 27 30 30 33 39 32 26 23 18 19 15 21 23 33 40 36 38 38 43 50 70 87 93 113 117 119 124 137 136 125 124 126 124 108
34 31 23 29 31 35 54 46 41 34 31 33 31 29 23 23 23 23 20 20 27 23 26 26 30 33 32 42 50 64 81 89 87 94 119 136 133 150 148 147 143 152 144
18 22 27 44 44 52 54 48 43 35 30 31 26 25 26 23 25 27 24 23 26 24 30 33 32 36 41 40 50 61 75 79 80 79 94 118 136 133 143 163 170 169 154
29 30 37 47 46 43 39 36 39 36 30 30 27 23 22 23 23 21 20 26 25 22 24 33 33 33 35 54 53 72 85 77 84 81 84 91 109 125 134 151 154 155 169
36 34 33 41 39 32 26 26 25 28 29 23 25 25 26 24 19 18 17 21 24 30 32 23 28 30 34 42 59 58 87 82 70 69 75 82 107 125 158 172 176 162 167
51 42 40 48 47 38 31 28 26 27 23 24 21 19 18 20 22 22 17 24 28 25 28 26 29 23 48 36 50 61 73 69 73 55 55 50 75 114 137 160 198 228 236
260 52 45 23 20 10 5 11 10 6 3 5 10 16 17 22 21 20 17 14 27 28 30 31 25 31 44 51 46 56 67 55 41 39 28 30 56 90 113 122 128 144 230
265 277 293 326 343 351 345 341 343 351 1 5 10 15 16 18 15 15 18 11 27 22 29 29 29 30 42 52 57 61 52 44 23 15 50 71 58 74 97 86 104 105 102
278 274 296 315 327 345 351 348 339 338 341 355 5 11 15 16 13 18 18 16 15 15 19 18 44 40 41 46 50 58 69 75 73 72 90 69 66 89 102 102 102 107 105
299 300 293 336 328 336 342 350 344 342 333 337 6 3 1 7 14 9 11 13 13 13 22 32 31 43 36 46 39 39 40 41 47 58 56 63 90 113 112 110 112 109 96
352 325 318 342 335 331 337 348 353 352 353 343 347 355 359 355 358 4 2 8 10 6 1 28 37 33 32 33 37 31 31 38 49 53 60 74 102 114 110 101 103 105 92
313 324 344 344 339 329 332 341 356 358 359 0 360 5 7 2 352 355 4 6 13 11 11 22 28 29 30 24 14 14 26 38 33 51 64 83 115 140 126 52 58 93 95
20 121 6 353 344 337 335 342 342 342 343 339 350 359 358 359 351 359 18 14 18 14 14 11 11 17 20 16 9 15 22 35 19 31 49 66 79 85 77 54 40 70 100
50 6 339 344 334 335 336 335 332 331 334 336 337 343 354 357 357 14 16 3 360 3 3 4 359 357 360 8 5 7 8 7 353 350 350 15 29 27 353 335 269 66 83
284 276 305 334 349 334 327 326 334 332 332 334 332 331 354 352 356 1 359 352 351 356 353 347 346 349 346 343 358 357 355 341 334 338 327 272 323 318 277 273 246 196 107
274 310 276 317 336 347 351 339 330 329 333 341 346 330 339 349 355 355 358 5 3 356 350 350 339 330 327 333 337 350 348 348 334 335 335 306 282 319 285 263 229 235 227
286 280 268 304 331 334 337 346 343 336 333 339 345 338 340 344 341 344 352 358 355 349 348 349 352 351 324 320 323 328 339 343 332 312 326 326 197 274 222 243 228 224 203
291 269 274 301 319 329 335 341 339 332 330 334 350 341 339 336 339 343 340 343 346 342 324 319 332 346 345 329 314 310 323 322 348 314 313 294 227 208 227 226 221 224 197
283 321 301 286 327 328 331 333 332 331 329 328 342 346 334 329 332 330 334 336 336 337 336 319 320 324 324 327 316 303 312 317 327 312 309 271 89 329 97 138 157 151 148
266 300 305 296 303 313 325 324 328 331 330 322 324 330 335 331 329 335 334 332 334 333 335 329 326 324 323 324 314 309 304 321 320 314 296 225 279 271 20 77 165 158 164
307 311 315 299 295 310 324 328 329 332 333 337 328 329 337 331 326 324 328 331 331 329 333 336 336 336 336 327 322 311 286 301 310 312 309 268 241 271 285 351 154 157 161